Flag for Austria Weather past 2 weeks in Waidhofen an der Thaya, Lower Austria, Austria

Now
65 °F

Mild.


Feels Like: 65 °F
Forecast: 60 / 70 °F
Wind: 2 mph from Northeast

Location: Retz

Current Time: Jul 30, 2014 at 6:05:14 AM

Latest Report: Jul 30, 2014 at 5:00 AM


Visibility: N/A

Pressure: 29.70 "Hg

Humidity: 94%

Dew point: 63 °F

Location of Waidhofen an der ThayaLocation

Historic Weather in Waidhofen an der Thaya — Graph

°F

Waidhofen an der Thaya temperature yesterday

Maximum temperature yesterday: 79 °F (at 4:00 PM)
Minimum temperature yesterday: 64 °F (at 4:00 AM)
Average temperature yesterday: 70 °F

Past Weeks' High & Low Weather Summary

 TemperatureHumidityPressure
High90 °F (Jul 20, 3:00 PM)95% (Jul 29, 6:00 AM)30.12 "Hg (Jul 29, 6:00 AM)
Low59 °F (Jul 24, 5:00 AM)34% (Jul 17, 3:00 PM)29.65 "Hg (Jul 21, 4:00 PM)
Average73 °F65%29.90 "Hg
* Reported Jul 15 4:00 AM — Jul 30 4:00 AM, Waidhofen an der Thaya, Weather by CustomWeather, © 2014

Note: Actual official high and low records may vary slightly from our data, if they occured in-between our weather recording intervals... More about our weather records

Advertising

Waidhofen an der Thaya weather history for previous 24 hours

 ConditionsComfort  
Time TempWeatherWind HumidityBarometerVisibility
4:00 AM
Jul 30
65 °FMild.2 mph95%29.69 "HgN/A
3:00 AM66 °FMild.3 mph94%29.69 "HgN/A
2:00 AM66 °FMild.5 mph92%29.70 "HgN/A
1:00 AM67 °FMild.5 mph89%29.70 "HgN/A
12:00 AM68 °FMild.5 mph87%29.70 "HgN/A
11:00 PM
Jul 29
69 °FMild.3 mph85%29.70 "HgN/A
10:00 PM70 °FMild.3 mph81%29.70 "HgN/A
9:00 PM72 °FMild.3 mph77%29.68 "HgN/A
8:00 PM74 °FPassing clouds.2 mph72%29.68 "Hg12 mi
7:00 PM76 °FMild.5 mph68%29.67 "HgN/A
6:00 PM77 °FWarm.5 mph62%29.68 "HgN/A
5:00 PM76 °FMild.5 mph68%29.69 "HgN/A
4:00 PM79 °FWarm.6 mph57%29.70 "HgN/A
3:00 PM77 °FMild.3 mph61%29.71 "HgN/A
2:00 PM75 °FOvercast.3 mph66%29.73 "Hg11 mi
1:00 PM73 °FMild.3 mph71%29.75 "HgN/A
12:00 PM70 °FMild.5 mph81%29.76 "HgN/A
11:00 AM69 °FMild.3 mph82%29.77 "HgN/A
10:00 AM67 °FMild.3 mph88%29.77 "HgN/A
9:00 AM66 °FMild.3 mph92%29.78 "HgN/A
8:00 AM65 °FLow clouds.5 mph94%29.77 "Hg3 mi
7:00 AM64 °FSprinkles. Low clouds.3 mph95%29.78 "Hg3 mi
6:00 AM64 °FMild.3 mph95%29.77 "HgN/A
Weather by CustomWeather, © 2014

See weather overviewHow to use our weather pages